Starlink 11508

operational
NORAD ID: 62515 Int'l Des: 2025-004 Owner: SPXS Country: US Constellation: starlink
LEOCIRCULAR

About Starlink 11508

Description loading...

Live Position

Loading 3D Globe...

Upcoming Passes

Altitude History

Altitude vs Time

uPlot chart will show altitude changes over time

Two-Line Element Set

1 62515U 25004E 25307.81500678 .00232252 00000-0 17589-2 0 9990
2 62515 43.0025 109.2886 0002221 278.2161 81.8455 15.70900108 47411
Epoch: Nov 3, 2025 • Age: 14 hours

Current Status

Altitude 362.5 km
Velocity 7.69 km/s
Sub-Earth Point -30.39°S, 113.05°W
Launch Date Jan 8, 2025
Age 0.8 years
Type internet

Technical Details

Classification Payload
Mass 960.00 kg
Dry Mass 910.00 kg
Total Mass 960.00 kg
Length 0.30 m
Diameter 4.10 m
Span 29.00 m
Shape Box + pan
Manufacturer SPXS
Bus Type Starlink V2MD
Phase Status In Orbit
Owner/State SPXS/US

Large Constellations

Loading constellations...